Date String (YYYY-MM-DD hh:mm:ss) UTC,Instrument flags,absolute air pressure of the measurement (hPa),sample flow rate (lpm),inlet stack bypass flow (lpm),air temperature of the measurement (°C),ambient temperature measured by the external sensor (°C),aerosol sample conditioner tube jacket temperature (°C),OPC LED temperature (°C),internal box temperature (°C),relative humidity of the measurement (%),span deviation,mass concentration of particles derived from Lorenz-Mie calculation of OPC scattering (μg/m³),mass concentration of particles derived from Lorenz-Mie calculation of OPC scattering (μg/m³),mass concentration of particles derived from Lorenz-Mie calculation of OPC scattering (μg/m³)
DateTimeUTC,F1_M11,P_M11,Q1_M11,Q2_M11,T1_M11,T2_M11,T3_M11,T4_M11,T5_M11,U1_M11,ZSPAN_M11,X2_M11,X0_M11,X1_M11
2023-06-03 20:00:00,SystemResetWarning,0833.2,4.99,000.00,030.1,028.5,000.0,038.5,031.7,28.8,0000.0,0001.52,0002.22,0001.21
2023-06-03 20:01:00,SystemResetWarning,0833.2,4.99,000.00,030.1,028.5,000.0,038.5,031.7,28.6,0000.0,0001.56,0002.34,0001.21
2023-06-03 20:02:00,SystemResetWarning,0833.3,4.99,000.00,030.1,028.6,000.0,038.5,031.7,28.7,0000.0,0001.55,0002.29,0001.21
2023-06-03 20:03:00,SystemResetWarning,0833.2,5.00,000.00,030.1,028.6,000.0,038.5,031.8,28.4,0000.0,0001.55,0002.27,0001.22
2023-06-03 20:04:00,SystemResetWarning,0833.2,5.01,000.00,030.2,028.6,000.0,038.5,031.7,27.8,0000.0,0001.53,0002.27,0001.21
2023-06-03 20:05:00,SystemResetWarning,0833.2,5.01,000.00,030.2,028.7,000.0,038.5,031.8,27.7,0000.0,0001.52,0002.32,0001.20
2023-06-03 20:06:00,SystemResetWarning,0833.2,5.00,000.00,030.2,028.7,000.0,038.5,031.8,27.3,0000.0,0001.50,0002.29,0001.19
2023-06-03 20:07:00,SystemResetWarning,0833.2,5.00,000.00,030.2,028.7,000.0,038.5,031.8,26.9,0000.0,0001.46,0002.19,0001.17
2023-06-03 20:08:00,SystemResetWarning,0833.2,4.99,000.00,030.2,028.7,000.0,038.5,031.9,26.4,0000.0,0001.46,0002.24,0001.16
2023-06-03 20:09:00,SystemResetWarning,0833.2,4.99,000.00,030.2,028.8,000.0,038.5,031.9,26.5,0000.0,0001.46,0002.31,0001.14
2023-06-03 20:10:00,SystemResetWarning,0833.2,5.00,000.00,030.2,028.8,000.0,038.5,031.9,27.0,0000.0,0001.43,0002.64,0001.13
2023-06-03 20:11:00,SystemResetWarning,0833.2,5.00,000.00,030.3,028.8,000.0,038.6,031.9,26.9,0000.0,0001.45,0003.97,0001.12
2023-06-03 20:12:00,SystemResetWarning,0833.2,5.00,000.00,030.3,028.8,000.0,038.6,031.9,25.9,0000.0,0001.40,0003.89,0001.10
2023-06-03 20:13:00,SystemResetWarning,0833.2,5.00,000.00,030.3,028.8,000.0,038.6,031.9,26.0,0000.0,0001.39,0003.88,0001.08
2023-06-03 20:14:00,SystemResetWarning,0833.2,5.00,000.00,030.3,028.8,000.0,038.6,031.9,25.8,0000.0,0001.41,0003.94,0001.05
2023-06-03 20:15:00,SystemResetWarning,0833.2,5.00,000.00,030.3,028.9,000.0,038.6,031.9,26.0,0000.0,0001.40,0003.93,0001.04
2023-06-03 20:16:00,SystemResetWarning,0833.2,4.99,000.00,030.4,028.9,000.0,038.6,032.0,26.6,0000.0,0001.38,0003.81,0001.03
2023-06-03 20:17:00,SystemResetWarning,0833.2,4.99,000.00,030.4,028.9,000.0,038.6,032.0,26.1,0000.0,0001.34,0003.72,0001.02
2023-06-03 20:18:00,SystemResetWarning,0833.1,5.00,000.00,030.4,028.9,000.0,038.6,032.0,25.3,0000.0,0001.31,0003.70,0001.00
2023-06-03 20:19:00,SystemResetWarning,0833.1,5.01,000.00,030.4,028.9,000.0,038.7,032.0,25.5,0000.0,0001.27,0003.60,0000.99
2023-06-03 20:20:00,SystemResetWarning,0833.1,5.01,000.00,030.4,028.9,000.0,038.7,032.0,25.4,0000.0,0001.24,0003.50,0000.98
2023-06-03 20:21:00,SystemResetWarning,0833.2,5.00,000.00,030.4,028.9,000.0,038.7,032.0,25.6,0000.0,0001.25,0003.22,0000.97
2023-06-03 20:22:00,SystemResetWarning,0833.2,4.99,000.00,030.4,028.9,000.0,038.7,032.0,26.1,0000.0,0001.20,0002.02,0000.96
2023-06-03 20:23:00,SystemResetWarning,0833.1,5.00,000.00,030.4,029.0,000.0,038.7,032.0,26.1,0000.0,0001.24,0002.30,0000.96
2023-06-03 20:24:00,SystemResetWarning,0833.1,5.00,000.00,030.4,029.0,000.0,038.7,032.0,26.3,0000.0,0001.28,0002.38,0000.98
2023-06-03 20:25:00,SystemResetWarning,0833.2,4.99,000.00,030.5,028.2,000.0,038.7,031.9,26.7,0000.0,0001.26,0002.35,0000.98
2023-06-03 20:26:00,SystemResetWarning,0833.1,4.99,000.00,030.4,026.6,000.0,038.6,031.7,26.3,0000.0,0001.26,0002.41,0000.98
2023-06-03 20:27:00,SystemResetWarning,0833.2,5.01,000.00,030.3,026.0,000.0,038.5,031.6,26.3,0000.0,0001.28,0002.48,0000.98
2023-06-03 20:28:00,SystemResetWarning,0833.1,5.01,000.00,030.2,026.1,000.0,038.5,031.5,26.7,0000.0,0001.28,0002.47,0000.98
2023-06-03 20:29:00,SystemResetWarning,0833.1,4.99,000.00,030.1,026.4,000.0,038.5,031.5,26.5,0000.0,0001.28,0002.44,0000.99
2023-06-03 20:30:00,SystemResetWarning,0833.4,4.99,000.00,030.1,026.7,000.0,038.5,031.5,26.5,0000.0,0001.29,0002.44,0000.99
2023-06-03 20:31:00,SystemResetWarning,0833.3,4.99,000.00,030.0,027.1,000.0,038.5,031.5,26.9,0000.0,0001.29,0002.47,0001.00
2023-06-03 20:32:00,SystemResetWarning,0833.3,5.00,000.00,030.0,027.3,000.0,038.5,031.5,27.2,0000.0,0001.29,0002.38,0001.00
2023-06-03 20:33:00,SystemResetWarning,0833.2,5.01,000.00,030.0,027.6,000.0,038.5,031.5,27.5,0000.0,0001.33,0002.28,0001.02
2023-06-03 20:34:00,SystemResetWarning,0833.1,5.01,000.00,030.0,027.8,000.0,038.5,031.6,28.2,0000.0,0001.30,0001.98,0001.03
2023-06-03 20:35:00,SystemResetWarning,0833.1,5.00,000.00,030.0,027.9,000.0,038.4,031.5,28.0,0000.0,0001.27,0001.89,0001.03
2023-06-03 20:36:00,SystemResetWarning,0833.0,5.00,000.00,030.0,028.1,000.0,038.4,031.6,28.5,0000.0,0001.25,0001.84,0001.03
2023-06-03 20:37:00,SystemResetWarning,0833.0,5.00,000.00,030.0,028.2,000.0,038.4,031.6,28.3,0000.0,0001.25,0001.77,0001.04
2023-06-03 20:38:00,SystemResetWarning,0833.0,5.00,000.00,030.0,028.3,000.0,038.4,031.6,27.8,0000.0,0001.25,0001.74,0001.05
2023-06-03 20:39:00,SystemResetWarning,0833.0,4.99,000.00,030.1,028.4,000.0,038.4,031.6,28.4,0000.0,0001.27,0001.77,0001.06
2023-06-03 20:40:00,SystemResetWarning,0833.1,5.00,000.00,030.1,028.4,000.0,038.4,031.7,27.8,0000.0,0001.31,0001.85,0001.08
2023-06-03 20:41:00,SystemResetWarning,0833.2,5.00,000.00,030.1,028.5,000.0,038.4,031.7,27.4,0000.0,0001.31,0001.83,0001.09
2023-06-03 20:42:00,SystemResetWarning,0833.4,5.00,000.00,030.1,028.5,000.0,038.4,031.7,27.7,0000.0,0001.33,0001.88,0001.09
2023-06-03 20:43:00,SystemResetWarning,0833.3,5.00,000.00,030.1,028.6,000.0,038.5,031.7,27.5,0000.0,0001.39,0002.00,0001.10
2023-06-03 20:44:00,SystemResetWarning,0832.9,5.00,000.00,030.1,028.6,000.0,038.5,031.8,27.5,0000.0,0001.37,0001.97,0001.10
2023-06-03 20:45:00,SystemResetWarning,0832.9,5.00,000.00,030.1,028.6,000.0,038.5,031.8,27.8,0000.0,0001.37,0001.94,0001.11
2023-06-03 20:46:00,SystemResetWarning,0832.9,5.01,000.00,030.2,028.7,000.0,038.5,031.8,28.0,0000.0,0001.37,0001.95,0001.11
2023-06-03 20:47:00,SystemResetWarning,0833.0,5.01,000.00,030.2,028.7,000.0,038.5,031.8,27.8,0000.0,0001.38,0001.95,0001.12
2023-06-03 20:48:00,SystemResetWarning,0833.0,5.00,000.00,030.2,028.7,000.0,038.5,031.8,27.8,0000.0,0001.38,0001.95,0001.12
2023-06-03 20:49:00,SystemResetWarning,0833.0,5.00,000.00,030.2,028.8,000.0,038.5,031.8,28.1,0000.0,0001.39,0001.95,0001.12
2023-06-03 20:50:00,SystemResetWarning,0833.0,4.99,000.00,030.2,028.8,000.0,038.5,031.9,27.1,0000.0,0001.45,0002.06,0001.12
2023-06-03 20:51:00,SystemResetWarning,0833.1,4.99,000.00,030.2,028.8,000.0,038.5,031.9,26.4,0000.0,0001.44,0002.01,0001.13
2023-06-03 20:52:00,SystemResetWarning,0833.3,5.01,000.00,030.3,028.8,000.0,038.5,031.9,26.8,0000.0,0001.47,0002.09,0001.14
2023-06-03 20:53:00,SystemResetWarning,0833.3,5.01,000.00,030.3,028.8,000.0,038.6,031.9,26.4,0000.0,0001.48,0002.10,0001.14
2023-06-03 20:54:00,SystemResetWarning,0833.1,4.99,000.00,030.3,028.9,000.0,038.6,031.9,26.1,0000.0,0001.42,0001.95,0001.13
2023-06-03 20:55:00,SystemResetWarning,0832.9,5.00,000.00,030.3,028.9,000.0,038.6,031.9,26.2,0000.0,0001.42,0001.99,0001.13
2023-06-03 20:56:00,SystemResetWarning,0832.9,4.99,000.00,030.3,028.7,000.0,038.6,031.9,26.3,0000.0,0001.42,0002.07,0001.12
2023-06-03 20:57:00,SystemResetWarning,0832.9,4.99,000.00,030.3,027.2,000.0,038.5,031.7,27.3,0000.0,0001.42,0002.09,0001.11
2023-06-03 20:58:00,SystemResetWarning,0833.3,5.00,000.00,030.2,026.2,000.0,038.4,031.5,28.1,0000.0,0001.47,0002.37,0001.12
2023-06-03 20:59:00,SystemResetWarning,0833.3,5.01,000.00,030.1,026.1,000.0,038.4,031.4,27.8,0000.0,0001.49,0002.48,0001.12
